Location: Asheville, NC
(35.6000°N, 82.5500°W)
Time: 08:49:55
(UTC-05:00)

Vanguard 2 Rocket - Pass Details

Date: 14 February 2018
Orbit: 555 x 3327 km, 32.9° (Epoch: 19 February)

Event Time Altitude Azimuth Distance (km) Brightness Sun altitude
Rises 05:51:48 0° 282° (WNW) 7,224 - -18.1°
Reaches altitude 10° 05:56:39 10° 280° (W) 6,276 - -17.1°
Exits shadow 06:00:31 19° 277° (W) 5,526 10.2 -16.3°
Maximum altitude 06:16:28 62° 206° (SSW) 3,210 9.5 -13.1°
Drops below altitude 10° 06:30:42 10° 130° (SE) 4,681 11.5 -10.2°
Sets 06:33:45 0° 127° (SE) 5,370 12.1 -9.6°
